Weather in Khar'kovka

Russia / Volgograd Oblast     50°25′27″N   46°49′01″E
temp.,
°C
wind,
m/s
gust,
m/s
humid.,
%
clouds,
%
prec.,
mm/h
press.,
hPa
HPBL,
m
27 february, sat
sat2700:00+3wsw715100100 0.1 1006347
03:00+2w714100100 0.1 1006312
06:00+2w61294100 0.0 1005365
09:000wsw61292100 0.0 1006340
12:00+1wsw61198100 0.0 1005446
15:00+1wsw61296100 0.0 1004513
18:000wsw6138995 0.1 1004464
21:00−3nw9148897 0.4 1005544
28 february, sun
sun2800:00−8wnw7138515 0.0 1006526
03:00−10nw6128823 0.0 1009616
06:00−12nw6118549 0.0 1011512
09:00−12nw698524 0.0 1012507
12:00−10nw57830 0.0 1013514
15:00−9nw57840 0.0 1014520
18:00−11nw34900 0.0 1016112
21:00−12nw36910 0.0 1018144
1 march, mon
mon100:00−13nnw35910 0.0 1019113
03:00−14nnw34920 0.0 102093
06:00−15nnw23910 0.0 102274
09:00−14nnw34880 0.0 1024233
12:00−12nnw34820 0.0 1024358
15:00−11nnw34844 0.0 1025365
18:00−13nnw12900 0.0 102520
21:00−14w11900 0.0 102620
2 march, tue
tue200:00−13w33920 0.0 102631
03:00−13wsw33920 0.0 102532
06:00−12sw46940 0.0 1023101
09:00−8sw6119250 0.0 1020294
12:00−2sw81488100 0.0 1017767
15:00−1wsw91594100 0.3 1013848
18:00−1sw91597100 2.5 1010711
21:00−1wsw81597100 4.6 1007663
3 march, wed
wed300:00−1w61097100 0.8 1006332
03:00−3wnw5119496 0.8 1006226
06:00−3wnw5119499 0.1 1006308
09:00−2nw7129198 0.3 1008580
12:00−1nw7108995 0.1 1010680
15:00−1nw798497 0.1 1011782
18:00−2nw51188100 0.0 1012508
21:00−4wnw5129199 0.1 1014362